Погода в Ковалевке

Украина / Полтавская область     50°01′22″N   34°03′37″E
темп.,
°C
ветер,
м/с
пор.,
м/с
влажн.,
%
обл.,
%
осадки,
мм/ч
давл.,
гПа
погр.,
м
25 октября, пн
пн2500:00+5ссз5968100 0.1 1029640
03:00+2ссз48825 0.1 1030229
06:000ссз37858 0.0 1032196
09:00+1с35715 0.0 1033257
12:00+5с33495 0.0 1034921
15:00+7ссз334119 0.0 10331112
18:00+4с11500 0.0 103310
21:00+2вюв11555 0.0 103310
26 октября, вт
вт2600:00+1ю22580 0.0 103412
03:00+1ю22620 0.0 103416
06:000ю23666 0.0 103325
09:00+2ю35575 0.0 1033161
12:00+8ююз45395 0.0 1032697
15:00+10ююз56325 0.0 1030935
18:00+5ю35435 0.0 102959
21:00+4ю47484 0.0 1029111
27 октября, ср
ср2700:00+3ю47510 0.0 1029108
03:00+2ю36500 0.0 1028100
06:00+1ю36550 0.0 102899
09:00+3ю48610 0.0 1028211
12:00+9ююз57330 0.0 1027641
15:00+11юз56300 0.0 1026877
18:00+6юз33485 0.0 102637
21:00+5юз33541 0.0 102725
28 октября, чт
чт2800:00+4юз335645 0.0 102734
03:00+4зюз2265100 0.0 102716
06:00+3з2284100 0.0 102710
09:00+5з227999 0.0 102885
12:00+11з3354100 0.0 1027462
15:00+13зсз34505 0.0 1026729
18:00+8з337111 0.0 102631
21:00+7з338190 0.0 102640
29 октября, пт
пт2900:00+6з338486 0.0 102637
03:00+6з348241 0.0 102650
06:00+7зсз3578100 0.0 1026127
09:00+9зсз257599 0.0 1027169
12:00+13сз346367 0.0 1027465
15:00+12сз336775 0.0 1027397
18:00+11ссз117710 0.0 102713
21:00+9всв11875 0.0 102810